CAPE
0 0 7 10 167 146 216 482 594 760 859 886 799 838 785 719 607 554 617 498 333 120 59 36 4 4 7 60 200 175 200 181 185 397 655 772 837 618 585 587 917 756 968
1 0 10 315 273 257 209 287 508 673 789 723 648 712 709 608 597 524 510 540 502 450 349 168 60 53 6 1 21 56 28 1 19 240 282 364 703 622 522 536 798 658 471
0 0 12 108 152 169 215 249 358 401 489 531 533 525 478 440 314 249 219 175 186 377 404 378 341 208 91 95 88 12 0 0 8 74 70 260 264 635 422 675 554 469 643
0 3 7 32 24 27 23 31 36 77 154 114 78 63 66 76 74 60 39 33 20 17 22 93 185 241 290 317 239 87 39 0 47 122 10 0 180 520 476 364 266 349 476
0 0 11 27 25 27 20 10 16 18 21 24 19 19 21 19 17 11 10 9 6 8 8 8 10 25 44 85 155 168 82 36 107 10 0 0 0 8 194 524 526 292 262
0 0 8 26 24 13 8 12 11 11 10 10 10 12 10 12 14 11 9 9 10 9 9 10 9 4 5 3 8 4 1 0 20 0 0 0 0 0 0 170 423 534 397
0 0 0 10 8 9 9 5 4 2 1 0 0 0 1 1 1 1 2 1 1 2 0 1 0 0 2 3 0 0 0 0 0 0 0 0 0 0 0 17 378 490 539
0 0 0 0 0 1 0 0 0 0 0 0 0 0 0 0 0 0 0 0 0 0 0 0 0 0 0 0 0 0 0 0 0 1 20 28 250 127 1 1 30 245 444
0 0 0 0 0 0 0 0 0 0 0 0 0 0 0 0 0 0 0 0 0 0 0 0 0 0 0 0 0 0 0 0 0 0 19 17 64 109 231 118 43 34 170
0 0 0 0 0 0 0 0 0 0 0 0 0 0 0 0 0 0 0 0 0 0 0 0 0 0 0 0 0 0 0 0 0 0 2 0 0 2 8 32 181 185 75
0 0 0 0 0 0 0 0 0 0 0 0 0 0 0 0 0 0 0 0 0 0 0 0 0 0 0 0 0 0 0 0 0 0 0 6 0 0 1 1 3 24 144
0 0 0 0 0 0 0 0 0 0 0 0 0 0 0 0 0 0 0 0 0 0 0 0 0 0 0 0 0 0 0 0 0 0 0 0 0 0 0 0 0 4 3
0 0 0 0 0 0 0 0 0 0 0 0 0 0 0 0 0 0 0 0 0 0 0 0 0 0 0 0 0 0 0 0 0 0 0 0 0 0 0 0 0 0 2
0 0 0 0 0 0 0 0 0 0 0 0 0 0 0 0 0 0 0 0 0 0 0 0 0 0 0 0 0 0 0 0 0 0 0 0 0 0 0 0 0 0 0
0 0 0 0 0 0 0 0 0 0 0 0 0 0 0 0 0 0 0 0 0 0 0 0 0 0 0 0 0 0 0 0 0 0 0 0 0 0 0 0 0 0 0
0 0 0 0 0 0 0 0 0 0 0 0 0 0 0 0 0 0 0 0 0 0 0 0 0 0 0 0 0 0 0 0 0 0 0 0 0 0 0 0 0 0 0
0 0 0 0 0 0 0 0 0 0 0 0 0 0 0 0 0 0 0 0 0 0 0 0 0 0 0 0 0 0 0 0 0 0 0 0 0 0 0 0 0 0 0
0 0 0 0 0 0 0 0 0 0 0 0 0 0 0 0 0 0 0 0 0 0 0 0 0 0 0 0 0 0 0 0 0 0 0 0 0 0 0 0 0 0 0
0 0 0 0 0 0 0 0 0 0 0 0 0 0 0 0 0 0 0 0 0 0 0 0 0 0 0 0 0 0 0 0 0 0 0 0 0 0 0 0 0 0 0
0 0 0 0 0 0 0 0 0 0 0 0 0 0 0 0 0 0 0 0 0 0 0 0 0 0 0 0 0 0 0 0 0 0 0 0 0 0 0 0 0 0 0
0 0 0 0 0 0 0 0 0 0 0 0 0 0 0 0 0 0 0 0 0 0 0 0 0 0 0 0 0 0 0 0 0 0 0 0 0 0 0 0 0 0 0
0 0 0 0 0 0 0 0 0 0 0 0 0 0 0 0 0 0 0 0 0 0 0 0 0 0 0 0 0 0 0 0 0 0 0 0 0 0 0 0 0 0 0
0 0 0 0 0 0 0 0 0 0 0 0 0 0 0 0 0 0 0 0 0 0 0 0 0 0 0 0 0 0 0 0 0 0 0 0 0 0 0 0 0 0 0
0 0 0 0 0 0 0 0 0 0 0 0 0 0 0 0 0 0 0 0 0 0 0 0 0 0 0 0 0 0 0 0 0 0 0 0 0 0 0 0 0 0 0
0 0 0 0 0 0 0 0 0 0 0 0 0 0 0 0 0 0 0 0 0 0 0 0 0 0 0 0 0 0 0 0 0 0 0 0 0 0 0 0 0 0 0
0 0 0 0 0 0 0 0 0 0 0 0 0 0 0 0 0 0 0 0 0 0 0 0 0 0 0 0 0 0 0 0 0 0 0 0 0 0 0 0 0 0 0
CIN
-0 -0 -0 -4 -0 -0 -0 -7 -2 -0 -0 -0 -0 -0 -0 -0 -0 -0 -0 -0 -0 -0 -2 -6 -0 -0 -0 -4 -2 -2 -6 -19 -23 -13 -11 -8 -4 -4 -5 -6 -3 -2 -0
-0 -0 -0 -2 -24 -0 -1 -10 -0 -0 -0 -0 -0 -0 -0 -0 -0 -0 -0 -0 -0 -0 -0 -0 -3 -10 -0 -0 -31 -19 -41 -5 -65 -34 -25 -23 -14 -4 -7 -14 -7 -5 -3
-0 -0 -0 -0 -0 -0 -0 -0 -8 -2 -0 -0 -0 -0 -0 -0 -0 -0 -0 -0 -0 -0 -0 -0 -0 -0 -2 -1 -1 -39 -0 -0 -12 -75 -99 -26 -27 -5 -1 -2 -7 -9 -0
-0 -0 -1 -0 -0 -45 -59 -38 -25 -14 -3 -6 -4 -3 -1 -0 -0 -2 -0 -0 -0 -0 -4 -1 -0 -0 -0 -0 -0 -0 -5 -0 -72 -73 -19 -0 -14 -4 -1 -0 -2 -4 -3
-0 -0 -0 -0 -0 -0 -0 -0 -0 -0 -0 -0 -0 -0 -0 -0 -0 -0 -0 -0 -0 -0 -0 -0 -0 -0 -1 -3 -0 -0 -3 -25 -46 -61 -0 -0 -0 -32 -6 -0 -0 -0 -3
-0 -0 -0 -0 -0 -0 -0 -0 -0 -0 -0 -0 -0 -0 -0 -0 -0 -0 -0 -0 -0 -0 -0 -0 -0 -0 -1 -0 -0 -0 -0 -0 -57 -0 -0 -0 -0 -0 -1 -3 -0 -0 -0
-0 -0 -0 -0 -0 -0 -0 -0 -0 -0 -0 -0 -0 -0 -0 -0 -0 -0 -0 -0 -0 -0 -0 -0 -0 -0 -0 -0 -0 -0 -0 -0 -0 -11 -2 -0 -0 -0 -0 -28 -0 -0 -0
-0 -0 -0 -0 -0 -0 -0 -0 -0 -0 -0 -0 -0 -0 -0 -0 -0 -0 -0 -0 -0 -0 -0 -0 -0 -0 -0 -0 -0 -0 -0 -0 -0 -5 -34 -83 -4 -9 -0 -0 -87 -1 -0
-0 -0 -0 -0 -0 -0 -0 -0 -0 -0 -0 -0 -0 -0 -0 -0 -0 -0 -0 -0 -0 -0 -0 -0 -0 -0 -0 -0 -0 -0 -0 -0 -0 -0 -13 -54 -107 -31 -2 -14 -51 -67 -18
-0 -0 -0 -0 -0 -0 -0 -0 -0 -0 -0 -0 -0 -0 -0 -0 -0 -0 -0 -0 -0 -0 -0 -0 -0 -0 -0 -0 -0 -0 -0 -0 -0 -0 -21 -0 -2 -19 -115 -127 -2 -0 -25
-0 -0 -0 -0 -0 -0 -0 -0 -0 -0 -0 -0 -0 -0 -0 -0 -0 -0 -0 -0 -0 -0 -0 -0 -0 -0 -0 -0 -0 -0 -0 -0 -0 -0 -0 -15 -0 -0 -0 -0 -0 -131 -12
-0 -0 -0 -0 -0 -0 -0 -0 -0 -0 -0 -0 -0 -0 -0 -0 -0 -0 -0 -0 -0 -0 -0 -0 -0 -0 -0 -0 -0 -0 -0 -0 -0 -0 -0 -0 -0 -0 -0 -0 -0 -0 -0
-0 -0 -0 -0 -0 -0 -0 -0 -0 -0 -0 -0 -0 -0 -0 -0 -0 -0 -0 -0 -0 -0 -0 -0 -0 -0 -0 -0 -0 -0 -0 -0 -0 -0 -0 -0 -0 -0 -0 -0 -0 -0 -0
-0 -0 -0 -0 -0 -0 -0 -0 -0 -0 -0 -0 -0 -0 -0 -0 -0 -0 -0 -0 -0 -0 -0 -0 -0 -0 -0 -0 -0 -0 -0 -0 -0 -0 -0 -0 -0 -0 -0 -0 -0 -0 -0
-0 -0 -0 -0 -0 -0 -0 -0 -0 -0 -0 -0 -0 -0 -0 -0 -0 -0 -0 -0 -0 -0 -0 -0 -0 -0 -0 -0 -0 -0 -0 -0 -0 -0 -0 -0 -0 -0 -0 -0 -0 -0 -0
-0 -0 -0 -0 -0 -0 -0 -0 -0 -0 -0 -0 -0 -0 -0 -0 -0 -0 -0 -0 -0 -0 -0 -0 -0 -0 -0 -0 -0 -0 -0 -0 -0 -0 -0 -0 -0 -0 -0 -0 -0 -0 -0
-0 -0 -0 -0 -0 -0 -0 -0 -0 -0 -0 -0 -0 -0 -0 -0 -0 -0 -0 -0 -0 -0 -0 -0 -0 -0 -0 -0 -0 -0 -0 -0 -0 -0 -0 -0 -0 -0 -0 -0 -0 -0 -0
-0 -0 -0 -0 -0 -0 -0 -0 -0 -0 -0 -0 -0 -0 -0 -0 -0 -0 -0 -0 -0 -0 -0 -0 -0 -0 -0 -0 -0 -0 -0 -0 -0 -0 -0 -0 -0 -0 -0 -0 -0 -0 -0
-0 -0 -0 -0 -0 -0 -0 -0 -0 -0 -0 -0 -0 -0 -0 -0 -0 -0 -0 -0 -0 -0 -0 -0 -0 -0 -0 -0 -0 -0 -0 -0 -0 -0 -0 -0 -0 -0 -0 -0 -0 -0 -0
-0 -0 -0 -0 -0 -0 -0 -0 -0 -0 -0 -0 -0 -0 -0 -0 -0 -0 -0 -0 -0 -0 -0 -0 -0 -0 -0 -0 -0 -0 -0 -0 -0 -0 -0 -0 -0 -0 -0 -0 -0 -0 -0
-0 -0 -0 -0 -0 -0 -0 -0 -0 -0 -0 -0 -0 -0 -0 -0 -0 -0 -0 -0 -0 -0 -0 -0 -0 -0 -0 -0 -0 -0 -0 -0 -0 -0 -0 -0 -0 -0 -0 -0 -0 -0 -0
-0 -0 -0 -0 -0 -0 -0 -0 -0 -0 -0 -0 -0 -0 -0 -0 -0 -0 -0 -0 -0 -0 -0 -0 -0 -0 -0 -0 -0 -0 -0 -0 -0 -0 -0 -0 -0 -0 -0 -0 -0 -0 -0
-0 -0 -0 -0 -0 -0 -0 -0 -0 -0 -0 -0 -0 -0 -0 -0 -0 -0 -0 -0 -0 -0 -0 -0 -0 -0 -0 -0 -0 -0 -0 -0 -0 -0 -0 -0 -0 -0 -0 -0 -0 -0 -0
-0 -0 -0 -0 -0 -0 -0 -0 -0 -0 -0 -0 -0 -0 -0 -0 -0 -0 -0 -0 -0 -0 -0 -0 -0 -0 -0 -0 -0 -0 -0 -0 -0 -0 -0 -0 -0 -0 -0 -0 -0 -0 -0
-0 -0 -0 -0 -0 -0 -0 -0 -0 -0 -0 -0 -0 -0 -0 -0 -0 -0 -0 -0 -0 -0 -0 -0 -0 -0 -0 -0 -0 -0 -0 -0 -0 -0 -0 -0 -0 -0 -0 -0 -0 -0 -0
-0 -0 -0 -0 -0 -0 -0 -0 -0 -0 -0 -0 -0 -0 -0 -0 -0 -0 -0 -0 -0 -0 -0 -0 -0 -0 -0 -0 -0 -0 -0 -0 -0 -0 -0 -0 -0 -0 -0 -0 -0 -0 -0
Wind_Speed
6 17 25 21 5 10 12 16 16 13 14 16 16 16 16 16 16 16 17 16 16 16 16 17 17 17 17 17 17 17 16 15 14 12 10 10 11 11 11 11 11 8 11
14 17 26 12 16 15 13 18 18 18 18 18 17 18 19 19 19 19 19 19 18 17 16 16 16 16 16 16 15 15 15 15 14 11 8 8 10 11 11 10 8 7 9
12 12 17 25 23 21 21 21 22 22 22 22 21 21 22 22 22 22 21 21 21 21 21 18 16 15 15 15 15 15 15 15 14 12 11 2 6 11 11 9 6 6 6
11 10 14 22 22 22 22 21 21 22 23 23 23 24 23 23 23 22 21 21 21 21 21 21 20 19 16 15 14 15 16 16 17 16 5 7 7 14 12 11 8 5 4
3 12 13 20 20 21 20 19 21 21 22 22 21 21 21 20 20 21 20 20 20 20 20 20 20 20 20 19 18 16 16 16 17 12 7 5 6 10 12 11 8 6 3
6 10 12 18 19 19 18 19 20 20 20 20 21 21 20 21 21 22 21 21 21 20 20 20 20 19 18 18 18 17 16 15 14 8 5 7 6 11 11 11 10 8 5
6 9 9 16 15 17 17 18 19 19 19 19 20 20 20 20 20 21 20 19 19 19 19 19 19 19 17 17 18 18 16 16 10 7 4 8 6 12 12 12 12 12 7
6 4 7 12 13 15 17 18 19 19 19 18 18 19 19 20 21 20 20 20 20 20 20 20 20 19 17 17 19 19 18 15 10 7 9 6 12 11 11 11 13 14 12
5 4 4 5 10 15 17 18 17 18 18 19 18 17 18 18 19 21 20 20 20 20 21 21 20 20 18 17 18 20 19 19 6 6 6 4 13 14 14 12 10 12 13
6 6 4 4 6 6 6 14 17 18 18 17 18 16 17 17 17 18 19 19 21 19 21 20 21 21 21 21 20 21 20 14 11 9 4 4 14 15 15 16 16 13 12
6 5 6 6 7 5 6 8 12 16 18 17 14 16 10 5 6 9 16 18 19 19 20 20 21 21 21 19 20 20 16 8 9 8 4 12 16 16 15 16 16 16 15
6 5 5 5 5 6 6 7 7 7 5 8 9 8 6 6 7 9 11 17 18 19 20 20 19 18 14 7 6 12 6 8 7 7 7 20 20 18 18 19 18 17 17
6 4 4 5 6 6 5 4 3 3 4 4 7 7 6 6 5 5 3 4 4 12 6 9 8 7 8 6 6 5 6 6 4 5 9 20 21 20 20 20 20 20 19
7 5 5 5 6 6 4 4 4 4 4 4 5 7 5 4 4 4 3 5 5 5 6 5 4 7 8 9 9 9 7 6 5 5 6 16 22 22 22 21 21 21 20
7 6 5 5 6 5 5 4 4 5 4 5 5 5 4 4 5 5 5 5 5 5 4 5 5 6 7 8 8 9 9 8 8 5 5 15 20 22 21 22 22 22 21
9 7 5 6 6 5 5 6 4 4 4 4 4 5 7 5 5 5 5 5 5 5 5 5 6 6 7 7 9 10 10 8 10 11 8 9 20 22 22 22 21 21 22
8 8 7 6 6 6 5 5 4 3 4 5 4 7 6 5 6 6 4 4 4 4 6 5 5 5 5 6 7 7 7 8 10 12 10 7 9 16 21 23 22 22 22
8 8 7 7 6 6 5 4 4 4 4 4 4 4 6 6 6 5 4 4 5 5 5 5 5 5 5 6 7 7 6 8 12 10 9 8 8 8 12 19 17 18 17
9 8 8 7 7 6 6 4 5 5 4 4 4 4 6 6 6 5 4 5 5 4 4 5 4 4 6 6 8 8 8 8 9 10 11 9 7 8 7 13 16 18 22
9 8 8 6 6 6 5 4 4 4 3 4 3 3 6 4 6 5 4 5 5 4 4 4 5 5 5 8 11 8 10 9 6 5 5 9 9 10 10 7 7 9 21
9 8 8 8 6 4 2 3 4 2 3 3 3 4 6 5 5 5 4 5 5 4 5 7 4 8 8 7 5 9 7 6 9 4 8 7 6 9 8 6 6 6 8
10 9 9 8 7 5 4 3 3 2 2 3 3 4 5 4 5 5 4 4 5 4 5 6 6 5 3 6 5 8 5 7 5 14 12 7 10 5 9 10 10 9 5
10 9 8 8 8 6 6 3 2 3 0 3 3 2 2 3 3 3 4 4 5 4 4 5 5 5 4 4 6 3 5 3 13 6 11 11 7 9 12 12 9 6 8
10 9 9 8 8 6 5 4 4 3 2 1 1 1 3 3 3 3 3 4 4 4 5 4 5 4 4 5 3 5 5 8 6 11 1 7 10 10 8 8 11 8 10
10 8 8 8 7 7 5 5 4 4 2 1 2 4 4 4 5 5 4 5 5 4 4 5 5 5 4 4 4 4 4 6 8 9 18 9 10 9 8 8 11 11 12
10 9 8 8 6 6 6 6 5 4 3 3 3 3 3 3 3 5 5 4 5 5 5 4 5 6 5 5 6 6 7 7 8 8 13 16 16 11 9 8 9 9 10
Wind_Direction
297 315 316 311 78 36 28 60 66 73 72 68 69 70 72 69 67 63 59 60 63 59 53 53 53 50 44 44 41 40 35 29 21 27 45 59 60 57 51 40 49 56 63
291 305 308 118 94 80 62 55 62 59 64 66 66 67 65 63 60 55 51 48 46 48 52 52 49 46 46 44 39 37 29 18 6 1 359 73 62 54 49 50 61 64 61
306 313 7 48 55 57 55 50 51 54 57 59 59 61 59 57 53 50 45 42 39 39 40 38 41 43 39 35 35 33 23 8 351 341 332 85 73 55 39 35 49 72 72
305 3 31 45 51 53 55 53 51 49 52 54 53 53 53 50 51 50 48 46 45 42 40 33 36 34 32 29 34 31 19 3 347 337 27 39 57 45 34 18 31 52 64
3 30 31 45 50 53 56 59 58 56 54 57 58 56 54 52 49 47 44 41 41 39 38 35 31 29 32 31 29 26 17 0 341 329 41 42 35 41 26 21 14 18 353
64 57 39 50 53 57 59 60 61 61 61 59 59 59 57 55 51 48 46 43 40 39 36 35 32 31 28 25 21 14 7 355 335 341 32 40 48 32 17 10 3 348 329
58 88 52 57 59 65 65 64 63 62 61 59 59 56 54 52 50 47 43 41 39 36 35 33 30 26 26 24 18 9 0 349 338 328 18 68 48 31 7 357 354 351 314
83 47 117 88 72 66 65 62 61 59 57 57 56 56 50 49 45 42 37 35 33 32 29 28 25 21 18 16 14 3 352 343 336 326 49 49 29 21 8 353 343 340 339
97 86 37 115 106 72 62 60 60 59 57 53 52 53 53 45 46 41 32 33 27 29 26 25 22 18 12 13 12 359 345 336 345 347 30 43 20 11 5 348 338 332 332
44 39 50 46 80 86 74 66 58 54 52 49 46 44 50 40 38 39 34 25 27 26 24 21 19 18 11 10 9 358 347 9 355 333 43 26 14 5 356 348 349 335 324
69 50 31 20 38 47 94 54 55 52 48 41 36 32 41 35 24 46 31 25 27 24 19 19 19 15 12 5 4 358 3 357 345 341 354 17 357 348 343 338 336 332 330
101 72 51 35 52 32 57 53 50 44 52 38 19 18 12 31 20 35 28 27 22 20 17 18 15 11 6 354 355 357 353 345 346 337 336 343 347 340 333 329 325 323 321
117 91 86 62 40 62 50 56 39 54 48 50 30 16 22 26 12 21 17 15 15 14 13 8 360 359 358 352 349 350 344 342 333 333 331 331 334 329 325 322 319 317 314
122 114 91 78 77 49 62 66 75 59 65 52 38 22 15 12 16 359 13 19 25 6 6 358 355 350 353 351 344 346 337 337 329 323 316 332 326 322 320 317 313 309 307
134 116 98 93 84 80 67 73 68 60 58 71 53 34 27 26 11 4 14 19 21 355 356 346 353 352 349 341 346 337 338 331 327 328 323 317 316 312 312 313 311 306 304
138 128 125 98 96 96 94 77 70 74 64 64 72 36 37 25 6 10 6 13 16 351 347 349 353 354 345 345 341 339 331 333 331 322 311 311 309 309 310 309 307 312 311
141 133 131 126 120 110 100 102 90 74 69 57 49 49 39 37 15 359 7 14 0 343 350 359 351 348 343 336 330 328 320 326 313 305 302 302 307 313 313 311 309 308 310
139 147 151 134 127 113 97 89 79 65 75 65 54 51 27 38 26 358 11 9 358 355 350 356 351 340 338 333 329 318 320 312 295 302 309 303 294 294 297 300 353 359 341
149 145 145 141 139 134 124 113 106 94 92 77 67 40 28 33 24 7 7 1 358 352 355 348 341 347 336 334 321 322 307 292 304 301 290 295 334 346 341 343 358 356 348
150 145 143 140 144 144 143 158 145 122 103 95 72 59 47 24 27 7 11 359 358 1 349 338 345 353 345 336 332 323 316 304 290 281 354 348 329 330 325 341 0 354 345
147 148 150 143 159 144 122 134 104 96 99 84 90 67 60 30 29 6 14 356 355 0 349 357 348 348 344 350 324 328 294 304 313 9 351 324 334 334 319 2 355 340 327
160 165 152 146 138 116 102 83 102 126 132 156 91 67 53 31 33 11 3 353 351 353 353 359 354 340 324 354 321 305 330 314 360 335 325 323 328 345 333 333 326 313 305
170 156 154 142 129 124 139 142 176 153 229 62 35 38 11 22 21 18 1 350 348 352 342 335 334 336 323 321 323 318 328 294 319 269 317 302 316 326 315 311 302 319 321
168 152 138 135 128 132 134 113 102 107 94 103 96 21 3 357 17 349 345 344 344 334 331 316 328 317 317 310 311 289 274 297 307 311 188 330 287 284 307 315 310 316 319
154 140 133 133 128 124 107 98 91 81 83 51 24 23 351 5 351 353 357 3 346 330 310 313 317 306 292 285 280 289 283 287 281 284 299 304 296 287 294 305 306 307 299
137 132 133 135 134 133 124 110 98 93 65 39 17 8 347 345 339 347 357 349 315 308 303 297 287 282 278 278 283 283 284 286 288 287 289 300 299 297 291 292 298 297 300